TimeCDT,TemperatureF,Dew PointF,Humidity,Sea Level PressureIn,VisibilityMPH,Wind Direction,Wind SpeedMPH,Gust SpeedMPH,PrecipitationIn,Events,Conditions,WindDirDegrees,DateUTC
12:15 AM,65.7,64.2,95,29.85,0.8,Calm,Calm,-,N/A,,Mist,0,2013-09-01 05:15:00
12:35 AM,65.3,63.7,94,29.85,5.0,Calm,Calm,-,N/A,,Clear,0,2013-09-01 05:35:00
12:55 AM,64.8,63.0,94,29.85,0.5,Calm,Calm,-,N/A,Fog,Fog,0,2013-09-01 05:55:00
1:15 AM,64.0,62.6,95,29.85,0.5,Calm,Calm,-,N/A,Fog,Fog,0,2013-09-01 06:15:00
1:35 AM,64.0,62.6,95,29.85,0.2,Calm,Calm,-,N/A,Fog,Fog,0,2013-09-01 06:35:00
1:55 AM,64.0,62.6,95,29.84,0.2,ESE,3.5,-,N/A,Fog,Fog,110,2013-09-01 06:55:00
2:15 AM,64.0,62.6,95,29.85,0.2,Calm,Calm,-,N/A,Fog,Fog,0,2013-09-01 07:15:00
2:35 AM,62.1,60.6,95,29.84,0.2,Calm,Calm,-,N/A,Fog,Fog,0,2013-09-01 07:35:00
2:55 AM,64.0,62.6,95,29.83,0.2,SE,4.6,-,N/A,Fog,Fog,130,2013-09-01 07:55:00
3:15 AM,64.0,62.6,95,29.82,4.0,SE,5.8,-,N/A,,Scattered Clouds,140,2013-09-01 08:15:00
3:35 AM,64.0,62.6,95,29.82,3.0,SSE,3.5,-,N/A,,Clear,150,2013-09-01 08:35:00
3:55 AM,64.0,62.6,95,29.82,4.0,SSE,3.5,-,N/A,,Clear,160,2013-09-01 08:55:00
4:15 AM,64.0,62.6,95,29.82,5.0,Calm,Calm,-,N/A,,Clear,0,2013-09-01 09:15:00
4:35 AM,64.0,62.6,95,29.82,1.0,Calm,Calm,-,N/A,,Mist,0,2013-09-01 09:35:00
4:55 AM,64.0,62.6,95,29.82,3.0,Calm,Calm,-,N/A,,Clear,0,2013-09-01 09:55:00
5:15 AM,61.9,60.4,95,29.82,0.5,NW,3.5,-,N/A,Fog,Fog,310,2013-09-01 10:15:00
5:35 AM,61.7,60.1,94,29.84,0.2,WNW,5.8,-,N/A,Fog,Fog,300,2013-09-01 10:35:00
5:55 AM,64.0,62.6,95,29.83,1.2,WSW,4.6,-,N/A,,Mostly Cloudy,250,2013-09-01 10:55:00
6:15 AM,64.0,62.6,95,29.83,3.0,SW,3.5,-,N/A,,Scattered Clouds,220,2013-09-01 11:15:00
6:35 AM,64.0,62.6,95,29.84,2.5,WSW,4.6,-,N/A,,Clear,250,2013-09-01 11:35:00
6:55 AM,64.0,62.6,95,29.83,2.0,WSW,3.5,-,N/A,,Clear,250,2013-09-01 11:55:00
7:15 AM,64.0,62.6,95,29.82,0.2,Calm,Calm,-,N/A,Fog,Fog,0,2013-09-01 12:15:00
7:35 AM,64.0,62.6,95,29.80,0.2,Calm,Calm,-,N/A,Fog,Fog,0,2013-09-01 12:35:00
7:55 AM,65.1,63.7,95,29.81,0.8,West,5.8,-,N/A,,Overcast,270,2013-09-01 12:55:00
8:15 AM,66.6,65.3,96,29.82,3.0,WSW,3.5,-,N/A,,Scattered Clouds,250,2013-09-01 13:15:00
8:35 AM,67.5,66.0,95,29.82,4.0,WSW,6.9,-,N/A,,Clear,240,2013-09-01 13:35:00
8:55 AM,69.3,67.6,95,29.83,5.0,WSW,5.8,-,N/A,,Clear,250,2013-09-01 13:55:00
9:15 AM,71.8,70.0,94,29.83,5.0,West,5.8,-,N/A,,Scattered Clouds,270,2013-09-01 14:15:00
9:35 AM,74.3,71.8,92,29.84,5.0,West,10.4,-,N/A,,Mostly Cloudy,270,2013-09-01 14:35:00
9:55 AM,74.3,71.1,90,29.84,5.0,West,6.9,-,N/A,,Overcast,280,2013-09-01 14:55:00
10:15 AM,74.3,70.5,88,29.84,5.0,West,5.8,-,N/A,,Mostly Cloudy,270,2013-09-01 15:15:00
10:35 AM,76.5,71.6,85,29.84,10.0,West,5.8,-,N/A,,Scattered Clouds,270,2013-09-01 15:35:00
10:55 AM,75.6,71.4,87,29.83,7.0,Calm,Calm,-,N/A,,Overcast,0,2013-09-01 15:55:00
11:15 AM,79.3,74.1,84,29.82,10.0,Calm,Calm,-,N/A,,Mostly Cloudy,0,2013-09-01 16:15:00
11:35 AM,79.3,73.4,82,29.81,10.0,Calm,Calm,-,N/A,,Mostly Cloudy,0,2013-09-01 16:35:00
11:55 AM,79.9,73.4,80,29.80,10.0,WSW,4.6,-,N/A,,Mostly Cloudy,240,2013-09-01 16:55:00
12:15 PM,81.9,74.3,78,29.80,10.0,West,6.9,-,N/A,,Mostly Cloudy,270,2013-09-01 17:15:00
12:35 PM,81.9,73.9,77,29.79,10.0,WNW,4.6,-,N/A,,Mostly Cloudy,290,2013-09-01 17:35:00
12:55 PM,81.9,73.6,76,29.79,10.0,NW,5.8,-,N/A,,Mostly Cloudy,310,2013-09-01 17:55:00
1:15 PM,81.9,73.6,76,29.79,10.0,West,4.6,-,N/A,,Mostly Cloudy,270,2013-09-01 18:15:00
1:35 PM,84.4,73.8,70,29.80,10.0,West,5.8,-,N/A,,Clear,270,2013-09-01 18:35:00
1:55 PM,83.8,74.1,72,29.80,10.0,WSW,3.5,-,N/A,,Scattered Clouds,240,2013-09-01 18:55:00
2:15 PM,85.1,73.2,67,29.79,10.0,WSW,8.1,-,N/A,,Scattered Clouds,250,2013-09-01 19:15:00
2:35 PM,85.3,73.0,67,29.79,10.0,West,5.8,-,N/A,,Scattered Clouds,270,2013-09-01 19:35:00
2:55 PM,85.6,72.0,63,29.78,10.0,WNW,5.8,-,N/A,,Scattered Clouds,290,2013-09-01 19:55:00
3:15 PM,85.6,72.3,64,29.77,10.0,WNW,5.8,-,N/A,,Mostly Cloudy,300,2013-09-01 20:15:00
3:35 PM,86.9,70.0,57,29.77,10.0,West,8.1,-,N/A,,Scattered Clouds,270,2013-09-01 20:35:00
3:55 PM,85.6,70.7,61,29.77,10.0,WNW,8.1,-,N/A,,Scattered Clouds,290,2013-09-01 20:55:00
4:15 PM,85.8,70.0,59,29.77,10.0,WNW,8.1,-,N/A,,Scattered Clouds,290,2013-09-01 21:15:00
4:35 PM,85.5,70.2,60,29.77,10.0,WNW,6.9,-,N/A,,Scattered Clouds,290,2013-09-01 21:35:00
4:55 PM,85.6,69.6,59,29.77,10.0,WNW,9.2,-,N/A,,Clear,290,2013-09-01 21:55:00
5:15 PM,85.6,70.3,60,29.77,10.0,West,10.4,-,N/A,,Clear,270,2013-09-01 22:15:00
5:35 PM,84.4,71.8,66,29.78,10.0,WNW,9.2,-,N/A,,Scattered Clouds,290,2013-09-01 22:35:00
5:55 PM,84.4,69.8,61,29.78,10.0,WNW,13.8,-,N/A,,Mostly Cloudy,300,2013-09-01 22:55:00
6:15 PM,84.0,69.3,61,29.78,10.0,WNW,11.5,-,N/A,,Scattered Clouds,300,2013-09-01 23:15:00
6:35 PM,81.9,65.7,58,29.79,10.0,WNW,12.7,20.7,N/A,,Clear,300,2013-09-01 23:35:00
6:55 PM,79.9,64.0,58,29.80,10.0,NW,9.2,-,N/A,,Clear,310,2013-09-01 23:55:00
7:15 PM,79.3,63.5,58,29.80,10.0,NW,9.2,-,N/A,,Clear,310,2013-09-02 00:15:00
7:35 PM,77.2,63.5,63,29.81,10.0,WNW,5.8,-,N/A,,Scattered Clouds,300,2013-09-02 00:35:00
7:55 PM,75.0,62.4,65,29.82,10.0,WNW,5.8,-,N/A,,Scattered Clouds,290,2013-09-02 00:55:00
8:15 PM,74.3,63.5,69,29.83,10.0,NW,9.2,-,N/A,,Clear,310,2013-09-02 01:15:00
8:55 PM,74.3,65.1,73,29.84,10.0,NW,6.9,-,N/A,,Clear,320,2013-09-02 01:55:00
9:15 PM,71.8,63.9,76,29.85,10.0,NW,5.8,-,N/A,,Clear,320,2013-09-02 02:15:00
9:35 PM,70.3,63.5,79,29.86,10.0,NW,6.9,-,N/A,,Clear,320,2013-09-02 02:35:00
9:55 PM,69.3,63.0,80,29.87,10.0,NW,5.8,-,N/A,,Clear,320,2013-09-02 02:55:00
10:15 PM,69.3,62.8,80,29.88,10.0,NW,5.8,-,N/A,,Mostly Cloudy,320,2013-09-02 03:15:00
10:35 PM,67.6,61.7,81,29.88,10.0,NW,5.8,-,N/A,,Scattered Clouds,320,2013-09-02 03:35:00
10:55 PM,67.5,61.7,82,29.88,10.0,NW,6.9,-,N/A,,Clear,320,2013-09-02 03:55:00
11:15 PM,67.1,61.3,82,29.89,10.0,NW,8.1,-,N/A,,Scattered Clouds,320,2013-09-02 04:15:00
11:35 PM,66.9,61.0,81,29.89,10.0,NW,6.9,-,N/A,,Clear,320,2013-09-02 04:35:00
11:55 PM,66.6,60.8,82,29.89,10.0,NW,8.1,-,N/A,,Scattered Clouds,320,2013-09-02 04:55:00